"Timestamp","TZ","WindDir_Mean (deg)","WindSpd_Mean (km/h)","WindSpd_Min (km/h)","WindSpd_Max (km/h)","Temp_Mean (deg)","RH_Mean (%)","MSLP_Mean (hPa)","Rain_Acc (mm)","Rain_Intensity (mm/h)","Hail_Acc (hits/cm2)","Hail_Intensity (hits/cm2hr)","Solar_Mean (W/m2)"
2020/07/11 00:00:00.014,n,143,2.52,2.52,2.88,15.4,81,1024.32,0,0,0,0,0.028725
2020/07/11 00:01:00.000,n,133,1.8,1.44,2.16,15.4,80.8,1024.32,0,0,0,0,0.027847
2020/07/11 00:02:00.000,n,150,1.8,1.44,2.16,15.4,80.9,1024.32,0,0,0,0,0.030479
2020/07/11 00:03:00.000,n,150,1.44,0.72,2.16,15.5,81,1024.32,0,0,0,0,0.033112
2020/07/11 00:04:00.002,n,173,1.08,0.72,1.08,15.5,81,1024.32,0,0,0,0,0.034828
2020/07/11 00:05:00.000,n,142,0.72,0.72,0.72,15.5,81,1024.32,0,0,0,0,0.031319
2020/07/11 00:06:00.000,n,110,0.72,0.36,1.08,15.5,81,1024.32,0,0,0,0,0.027847
2020/07/11 00:07:00.009,n,127,1.44,0.36,1.8,15.5,81.2,1024.32,0,0,0,0,0.036545
2020/07/11 00:08:00.006,n,83,1.44,1.08,1.8,15.5,81.3,1024.32,0,0,0,0,0.028725
2020/07/11 00:09:00.004,n,142,0.72,0.72,0.72,15.5,81.3,1024.32,0,0,0,0,0.034828
2020/07/11 00:10:00.001,n,165,1.08,0.72,1.08,15.5,81.3,1024.32,0,0,0,0,0.032196
2020/07/11 00:11:00.000,n,127,2.16,2.16,2.52,15.5,81.4,1024.32,0,0,0,0,0.033951
2020/07/11 00:12:00.000,n,154,2.16,2.16,2.52,15.5,81.5,1024.22,0,0,0,0,0.029602
2020/07/11 00:13:00.000,n,144,2.16,1.8,2.52,15.5,81.5,1024.22,0,0,0,0,0.030479
2020/07/11 00:14:00.006,n,146,1.44,0.72,2.52,15.4,81.6,1024.22,0,0,0,0,0.031319
2020/07/11 00:15:00.004,n,133,1.8,0.72,2.16,15.4,81.7,1024.22,0,0,0,0,0.029602
2020/07/11 00:16:00.001,n,158,3.6,3.24,3.96,15.4,81.5,1024.22,0,0,0,0,0.033951
2020/07/11 00:17:00.014,n,140,3.6,3.6,3.96,15.4,81.5,1024.22,0,0,0,0,0.033951
2020/07/11 00:18:00.011,n,150,3.6,3.6,3.96,15.4,81.6,1024.22,0,0,0,0,0.033112
2020/07/11 00:19:00.000,n,154,2.88,2.52,2.88,15.4,81.6,1024.22,0,0,0,0,0.034828
2020/07/11 00:20:00.000,n,156,1.8,1.08,2.52,15.4,81.7,1024.12,0,0,0,0,0.033112
2020/07/11 00:21:00.006,n,185,3.24,2.52,3.24,15.4,81.7,1024.12,0,0,0,0,0.035706
2020/07/11 00:22:00.000,n,181,2.16,2.16,2.52,15.4,81.8,1024.12,0,0,0,0,0.034828
2020/07/11 00:23:00.000,n,182,3.6,2.52,3.96,15.4,81.7,1024.12,0,0,0,0,0.035706
2020/07/11 00:24:00.009,n,220,1.8,1.8,2.52,15.3,81.8,1024.02,0,0,0,0,0.039177
2020/07/11 00:25:00.007,n,228,1.08,0.72,1.44,15.4,81.8,1024.02,0,0,0,0,0.0383
2020/07/11 00:26:00.006,n,248,1.44,1.08,1.44,15.4,81.8,1024.02,0,0,0,0,0.03746
2020/07/11 00:27:00.003,n,196,0.72,0.36,1.08,15.4,81.8,1024.02,0,0,0,0,0.03746
2020/07/11 00:28:00.000,n,129,1.44,1.08,1.8,15.4,81.8,1024.02,0,0,0,0,0.0383
2020/07/11 00:29:00.000,n,147,1.44,0.72,1.8,15.4,81.7,1023.92,0,0,0,0,0.040054
2020/07/11 00:30:00.000,n,197,0.72,0.36,1.08,15.3,81.6,1023.92,0,0,0,0,0.039177
2020/07/11 00:31:00.000,n,122,0.72,0.36,1.08,15.3,81.6,1023.92,0,0,0,0,0.036545
2020/07/11 00:32:00.005,n,192,1.08,0.72,1.8,15.3,81.7,1023.92,0,0,0,0,0.036545
2020/07/11 00:33:00.004,n,303,1.44,1.08,2.16,15.3,81.8,1023.92,0,0,0,0,0.0383
2020/07/11 00:34:00.001,n,28,0.36,0,0.72,15.3,81.9,1023.92,0,0,0,0,0.0383
2020/07/11 00:35:00.000,n,216,2.88,2.16,3.24,15.3,81.8,1023.92,0,0,0,0,0.03746
2020/07/11 00:36:00.015,n,135,2.16,1.44,2.16,15.3,81.6,1023.92,0,0,0,0,0.036545
2020/07/11 00:37:00.000,n,143,2.52,1.44,3.6,15.3,81.6,1023.92,0,0,0,0,0.0383
2020/07/11 00:38:00.000,n,143,2.16,2.16,2.52,15.2,81.4,1023.92,0,0,0,0,0.040054
2020/07/11 00:39:00.000,n,99,1.44,1.08,1.8,15.2,81.5,1023.92,0,0,0,0,0.035706
2020/07/11 00:40:00.004,n,115,1.8,1.8,2.16,15.2,81.6,1023.92,0,0,0,0,0.040894
2020/07/11 00:41:00.001,n,143,2.16,1.44,2.52,15.2,81.5,1023.92,0,0,0,0,0.040894
2020/07/11 00:42:00.000,n,125,2.16,1.8,2.52,15.2,81.5,1023.92,0,0,0,0,0.0383
2020/07/11 00:43:00.000,n,179,3.24,3.24,3.6,15.2,81.4,1023.92,0,0,0,0,0.039177
2020/07/11 00:44:00.011,n,156,2.52,2.16,2.88,15.2,81.5,1023.92,0,0,0,0,0.0383
2020/07/11 00:45:00.008,n,147,3.96,3.96,3.96,15.1,81.4,1023.92,0,0,0,0,0.03746
2020/07/11 00:46:00.000,n,160,3.96,3.6,4.68,15.1,81.4,1023.92,0,0,0,0,0.0383
2020/07/11 00:47:00.001,n,185,2.88,2.52,3.24,15.1,81.5,1023.92,0,0,0,0,0.036545
2020/07/11 00:48:00.000,n,187,4.32,3.96,5.04,15.1,81.5,1023.92,0,0,0,0,0.036545
2020/07/11 00:49:00.000,n,177,3.6,3.24,3.6,15.1,81.6,1023.92,0,0,0,0,0.035706
2020/07/11 00:50:00.000,n,167,3.24,3.24,3.6,15.1,81.7,1023.92,0,0,0,0,0.036545
2020/07/11 00:51:00.007,n,150,3.24,2.88,3.96,15.1,81.7,1023.82,0,0,0,0,0.0383
2020/07/11 00:52:00.004,n,153,2.88,2.52,2.88,15.1,81.7,1023.82,0,0,0,0,0.036545
2020/07/11 00:53:00.001,n,178,3.96,3.24,4.68,15.1,81.8,1023.82,0,0,0,0,0.03746
2020/07/11 00:54:00.015,n,204,2.52,2.52,2.88,15.1,81.9,1023.82,0,0,0,0,0.036545
2020/07/11 00:55:00.000,n,254,1.44,1.08,1.8,15.2,81.8,1023.82,0,0,0,0,0.036545
2020/07/11 00:56:00.000,n,254,2.16,1.8,2.88,15.2,81.9,1023.82,0,0,0,0,0.0383
2020/07/11 00:57:00.000,n,297,0.72,0.36,1.08,15.2,81.9,1023.82,0,0,0,0,0.035706
2020/07/11 00:58:00.002,n,259,2.52,2.52,2.88,15.2,81.8,1023.72,0,0,0,0,0.040054
2020/07/11 00:59:00.000,n,253,3.24,3.24,3.6,15.2,81.9,1023.72,0,0,0,0,0.033951
2020/07/11 01:00:00.000,n,254,2.52,2.16,2.88,15.2,81.7,1023.72,0,0,0,0,0.039177
2020/07/11 01:01:00.010,n,59,0.72,0.36,1.44,15.2,81.7,1023.72,0,0,0,0,0.035706
2020/07/11 01:02:00.007,n,145,1.8,1.08,2.16,15.2,81.8,1023.72,0,0,0,0,0.033951
2020/07/11 01:03:00.005,n,224,1.08,0.72,1.44,15.2,81.7,1023.62,0,0,0,0,0.03746
2020/07/11 01:04:00.002,n,200,0.72,0.36,0.72,15.2,81.7,1023.62,0,0,0,0,0.033951
2020/07/11 01:05:00.000,n,222,0.72,0.72,1.08,15.1,81.7,1023.62,0,0,0,0,0.033951
2020/07/11 01:06:00.000,n,222,1.8,1.44,2.16,15.2,81.8,1023.62,0,0,0,0,0.039177
2020/07/11 01:07:00.000,n,222,2.88,2.16,3.6,15.1,81.8,1023.62,0,0,0,0,0.033951
2020/07/11 01:08:00.007,n,234,1.08,1.08,1.44,15.1,81.8,1023.62,0,0,0,0,0.033951
2020/07/11 01:09:00.005,n,240,1.44,1.08,1.8,15.1,81.8,1023.62,0,0,0,0,0.034828
2020/07/11 01:10:00.001,n,240,1.08,1.08,1.08,15.1,81.8,1023.52,0,0,0,0,0.034828
2020/07/11 01:11:00.015,n,271,1.08,1.08,1.44,15.1,81.8,1023.52,0,0,0,0,0.034828
2020/07/11 01:12:00.012,n,257,1.8,1.44,2.16,15.1,81.7,1023.52,0,0,0,0,0.033951
2020/07/11 01:13:00.000,n,14,1.08,1.08,1.44,15.1,81.7,1023.52,0,0,0,0,0.034828
2020/07/11 01:14:00.000,n,213,0.36,0,0.72,15.1,81.8,1023.52,0,0,0,0,0.034828
2020/07/11 01:15:00.005,n,166,0.36,0,0.72,15.1,82,1023.52,0,0,0,0,0.033112
2020/07/11 01:16:00.002,n,232,0.72,0.36,1.08,15.1,81.9,1023.52,0,0,0,0,0.033112
2020/07/11 01:17:00.000,n,262,1.8,1.44,1.8,15.1,81.8,1023.52,0,0,0,0,0.033951
2020/07/11 01:18:00.000,n,263,2.52,2.52,2.88,15.1,81.7,1023.42,0,0,0,0,0.035706
2020/07/11 01:19:00.011,n,252,4.32,4.32,4.32,15.1,81.6,1023.42,0,0,0,0,0.031319
2020/07/11 01:20:00.008,n,255,5.4,5.04,5.76,15.1,81.5,1023.42,0,0,0,0,0.034828
2020/07/11 01:21:00.005,n,254,3.96,3.96,3.96,15.1,81.6,1023.42,0,0,0,0,0.036545
2020/07/11 01:22:00.000,n,267,3.6,3.24,3.96,15.1,81.6,1023.42,0,0,0,0,0.033112
2020/07/11 01:23:00.000,n,265,2.52,2.52,2.88,15.1,81.6,1023.42,0,0,0,0,0.033112
2020/07/11 01:24:00.000,n,251,2.88,2.52,3.24,15,81.6,1023.42,0,0,0,0,0.036545
2020/07/11 01:25:00.000,n,262,2.16,2.16,2.52,15,81.7,1023.32,0,0,0,0,0.033951
2020/07/11 01:26:00.007,n,191,0.36,0,0.72,15,81.7,1023.32,0,0,0,0,0.035706
2020/07/11 01:27:00.004,n,290,0.36,0,0.72,15,81.8,1023.32,0,0,0,0,0.035706
2020/07/11 01:28:00.001,n,246,0.72,0.72,1.08,15.1,81.8,1023.32,0,0,0,0,0.032196
2020/07/11 01:29:00.000,n,214,1.08,0.72,1.08,15.1,81.9,1023.22,0,0,0,0,0.033951
2020/07/11 01:30:00.011,n,205,2.16,2.16,2.16,15.1,81.9,1023.22,0,0,0,0,0.033112
2020/07/11 01:31:00.000,n,245,1.44,1.44,1.44,15.1,81.8,1023.22,0,0,0,0,0.032196
2020/07/11 01:32:00.000,n,306,1.08,0.72,1.8,15.1,82.2,1023.22,0,0,0,0,0.029602
2020/07/11 01:33:00.003,n,209,0.36,0.36,0.36,15.1,82.2,1023.22,0,0,0,0,0.033951
2020/07/11 01:34:00.000,n,293,0.36,0,0.36,15.1,82,1023.22,0,0,0,0,0.031319
2020/07/11 01:35:00.000,n,165,2.16,2.16,2.52,15.1,81.8,1023.22,0,0,0,0,0.032196
2020/07/11 01:36:00.000,n,144,3.24,3.24,3.6,15.1,81.7,1023.22,0,0,0,0,0.033112
2020/07/11 01:37:00.009,n,123,2.52,2.16,2.52,15.1,81.7,1023.22,0,0,0,0,0.033951
2020/07/11 01:38:00.006,n,118,1.44,1.44,1.8,15.1,81.8,1023.22,0,0,0,0,0.033951
2020/07/11 01:39:00.003,n,111,1.08,0.72,1.08,15.1,81.9,1023.22,0,0,0,0,0.033112
2020/07/11 01:40:00.001,n,118,1.08,0.72,1.8,15.1,82.1,1023.22,0,0,0,0,0.028725
2020/07/11 01:41:00.000,n,157,0.72,0.36,0.72,15.1,82,1023.12,0,0,0,0,0.032196
2020/07/11 01:42:00.000,n,97,1.44,0.72,1.8,15.1,82,1023.12,0,0,0,0,0.028725
2020/07/11 01:43:00.000,n,155,0.72,0.36,0.72,15.1,82,1023.12,0,0,0,0,0.027847
2020/07/11 01:44:00.005,n,166,1.08,0.72,1.08,15.1,82,1023.12,0,0,0,0,0.029602
2020/07/11 01:45:00.002,n,196,0.72,0.72,0.72,15.1,82.1,1023.12,0,0,0,0,0.033951
2020/07/11 01:46:00.000,n,150,0.72,0.36,0.72,15.1,82.1,1023.12,0,0,0,0,0.027847
2020/07/11 01:47:00.013,n,227,0.72,0.72,0.72,15.1,82.1,1023.12,0,0,0,0,0.02697
2020/07/11 01:48:00.010,n,303,0.72,0.36,0.72,15.1,82.1,1023.12,0,0,0,0,0.02697
2020/07/11 01:49:00.000,n,25,1.08,0.72,1.44,15.1,82.4,1023.12,0,0,0,0,0.027847
2020/07/11 01:50:00.000,n,76,1.44,1.08,1.8,15.1,82.4,1023.12,0,0,0,0,0.02697
2020/07/11 01:51:00.000,n,130,2.16,2.16,2.16,15.1,82.4,1023.12,0,0,0,0,0.02697
2020/07/11 01:52:00.000,n,145,2.52,2.52,2.52,15.1,82.4,1023.02,0,0,0,0,0.033951
2020/07/11 01:53:00.000,n,154,3.24,2.88,3.24,15.1,82.3,1023.02,0,0,0,0,0.028725
2020/07/11 01:54:00.008,n,152,2.52,2.52,2.88,15.1,82.3,1023.02,0,0,0,0,0.032196
2020/07/11 01:55:00.005,n,164,1.8,1.44,2.16,15,82.3,1023.02,0,0,0,0,0.02697
2020/07/11 01:56:00.002,n,187,1.8,1.44,2.16,15,82.4,1023.02,0,0,0,0,0.032196
2020/07/11 01:57:00.016,n,161,2.52,2.16,2.88,15,82.4,1023.02,0,0,0,0,0.031319
2020/07/11 01:58:00.000,n,156,1.8,1.08,2.52,15,82.5,1022.92,0,0,0,0,0.030479
2020/07/11 01:59:00.000,n,170,2.88,2.16,3.24,15,82.6,1022.92,0,0,0,0,0.028725
2020/07/11 02:00:00.000,n,187,2.52,2.52,2.88,15.1,82.4,1022.92,0,0,0,0,0.029602
2020/07/11 02:01:00.005,n,179,4.32,3.96,4.68,15,82.2,1022.92,0,0,0,0,0.033112
2020/07/11 02:02:00.001,n,171,4.68,4.32,5.04,15,82.1,1022.82,0,0,0,0,0.032196
2020/07/11 02:03:00.000,n,185,3.24,2.52,3.24,15,82,1022.82,0,0,0,0,0.031319
2020/07/11 02:04:00.012,n,172,2.88,2.52,3.24,15,81.9,1022.82,0,0,0,0,0.032196
2020/07/11 02:05:00.009,n,164,2.88,2.16,3.24,15,81.9,1022.82,0,0,0,0,0.029602
2020/07/11 02:06:00.006,n,165,4.32,3.96,5.04,15,81.9,1022.82,0,0,0,0,0.031319
2020/07/11 02:07:00.000,n,154,2.88,2.16,3.24,15,82,1022.82,0,0,0,0,0.032196
2020/07/11 02:08:00.000,n,123,0.72,0.36,1.08,15,82,1022.82,0,0,0,0,0.028725
2020/07/11 02:09:00.000,n,145,2.52,2.16,3.24,15,82,1022.82,0,0,0,0,0.033112
2020/07/11 02:10:00.000,n,150,3.6,3.24,4.32,15,82,1022.82,0,0,0,0,0.031319
2020/07/11 02:11:00.008,n,156,3.6,2.88,3.6,15,82,1022.82,0,0,0,0,0.032196
2020/07/11 02:12:00.005,n,148,3.24,2.88,3.6,15,82,1022.72,0,0,0,0,0.029602
2020/07/11 02:13:00.002,n,179,4.32,3.96,4.32,15,82.1,1022.72,0,0,0,0,0.033112
2020/07/11 02:14:00.000,n,174,5.4,5.04,5.76,14.9,82,1022.72,0,0,0,0,0.030479
2020/07/11 02:15:00.013,n,169,5.4,4.32,5.76,14.9,81.9,1022.72,0,0,0,0,0.032196
2020/07/11 02:16:00.000,n,169,6.12,5.76,6.48,14.9,81.9,1022.72,0,0,0,0,0.030479
2020/07/11 02:17:00.000,n,174,7.2,6.12,7.92,14.9,81.9,1022.72,0,0,0,0,0.031319
2020/07/11 02:18:00.005,n,176,5.4,5.04,5.76,14.9,82,1022.62,0,0,0,0,0.028725
2020/07/11 02:19:00.002,n,191,3.6,2.88,3.96,14.9,82.1,1022.62,0,0,0,0,0.030479
2020/07/11 02:20:00.000,n,216,2.52,2.16,2.88,14.9,82.1,1022.62,0,0,0,0,0.026131
2020/07/11 02:21:00.000,n,249,2.88,2.88,3.24,14.9,82.2,1022.62,0,0,0,0,0.025253
2020/07/11 02:22:00.010,n,288,0.72,0,1.44,14.9,82.2,1022.62,0,0,0,0,0.025253
2020/07/11 02:23:00.007,n,228,1.08,0.72,1.08,14.9,82.3,1022.62,0,0,0,0,0.029602
2020/07/11 02:24:00.004,n,79,0.72,0.72,1.44,14.9,82.4,1022.62,0,0,0,0,0.02697
2020/07/11 02:25:00.001,n,91,2.52,1.8,2.52,14.9,82.3,1022.62,0,0,0,0,0.029602
2020/07/11 02:26:00.000,n,221,1.08,0.72,1.44,14.9,82.4,1022.62,0,0,0,0,0.029602
2020/07/11 02:27:00.000,n,40,2.52,1.8,2.88,14.9,82.4,1022.62,0,0,0,0,0.027847
2020/07/11 02:28:00.000,n,13,2.52,2.16,2.88,14.9,82.2,1022.62,0,0,0,0,0.025253
2020/07/11 02:29:00.008,n,298,0.72,0.36,0.72,14.9,82.2,1022.72,0,0,0,0,0.027847
2020/07/11 02:30:00.006,n,185,0.72,0.36,1.08,14.8,82.1,1022.72,0,0,0,0,0.025253
2020/07/11 02:31:00.003,n,297,0.36,0,0.72,14.8,82.3,1022.72,0,0,0,0,0.027847
2020/07/11 02:32:00.001,n,139,2.16,1.44,2.52,14.8,82.3,1022.72,0,0,0,0,0.02697
2020/07/11 02:33:00.015,n,224,1.08,0.72,1.44,14.8,82.2,1022.72,0,0,0,0,0.029602
2020/07/11 02:34:00.000,n,137,2.52,2.16,2.88,14.8,82.3,1022.72,0,0,0,0,0.033989
2020/07/11 02:35:00.000,n,173,3.24,2.16,3.96,14.8,82.4,1022.72,0,0,0,0,0.038338
2020/07/11 02:36:00.001,n,157,5.4,5.04,5.76,14.8,82.3,1022.72,0,0,0,0,0.034866
2020/07/11 02:37:00.000,n,154,6.12,5.4,6.48,14.8,82.5,1022.72,0,0,0,0,0.035744
2020/07/11 02:38:00.000,n,147,3.6,2.16,4.68,14.8,82.5,1022.72,0,0,0,0,0.02964
2020/07/11 02:39:00.009,n,165,7.2,6.12,7.56,14.8,82.6,1022.62,0,0,0,0,0.030479
2020/07/11 02:40:00.006,n,164,4.32,3.6,4.68,14.8,82.6,1022.62,0,0,0,0,0.030479
2020/07/11 02:41:00.003,n,178,6.12,5.76,6.48,14.7,82.7,1022.62,0,0,0,0,0.033112
2020/07/11 02:42:00.000,n,174,6.48,5.76,6.84,14.7,82.7,1022.62,0,0,0,0,0.035744
2020/07/11 02:43:00.000,n,186,2.52,2.16,3.24,14.7,82.9,1022.62,0,0,0,0,0.033112
2020/07/11 02:44:00.000,n,192,5.76,5.4,6.48,14.7,82.9,1022.62,0,0,0,0,0.028763
2020/07/11 02:45:00.000,n,157,2.88,2.16,3.96,14.7,82.9,1022.62,0,0,0,0,0.026131
2020/07/11 02:46:00.005,n,171,4.32,3.96,4.68,14.7,82.9,1022.62,0,0,0,0,0.028763
2020/07/11 02:47:00.002,n,148,1.44,0.36,3.6,14.7,83,1022.52,0,0,0,0,0.033112
2020/07/11 02:48:00.000,n,168,3.24,2.88,3.6,14.8,83,1022.52,0,0,0,0,0.027924
2020/07/11 02:49:00.011,n,176,3.6,3.24,3.96,14.8,83,1022.52,0,0,0,0,0.033989
2020/07/11 02:50:00.008,n,145,3.24,2.88,3.24,14.8,82.9,1022.52,0,0,0,0,0.031395
2020/07/11 02:51:00.006,n,142,2.88,1.08,5.4,14.7,82.9,1022.52,0,0,0,0,0.030479
2020/07/11 02:52:00.000,n,138,3.24,1.8,5.04,14.7,83,1022.52,0,0,0,0,0.033989
2020/07/11 02:53:00.000,n,155,3.24,2.88,3.6,14.7,82.9,1022.52,0,0,0,0,0.030479
2020/07/11 02:54:00.000,n,153,5.04,5.04,5.4,14.7,82.9,1022.52,0,0,0,0,0.034866
2020/07/11 02:55:00.000,n,145,5.4,5.4,5.76,14.7,83,1022.52,0,0,0,0,0.030479
2020/07/11 02:56:00.008,n,159,5.76,5.4,6.12,14.7,83.1,1022.52,0,0,0,0,0.033112
2020/07/11 02:57:00.005,n,143,3.24,2.88,3.6,14.7,83.1,1022.52,0,0,0,0,0.02964
2020/07/11 02:58:00.002,n,157,4.68,4.68,4.68,14.7,83.1,1022.52,0,0,0,0,0.027924
2020/07/11 02:59:00.000,n,139,3.96,3.24,4.32,14.7,83.2,1022.52,0,0,0,0,0.032272
2020/07/11 03:00:00.011,n,135,1.8,1.8,2.16,14.7,83.2,1022.42,0,0,0,0,0.02964
2020/07/11 03:01:00.000,n,172,3.24,3.24,3.6,14.7,83.3,1022.42,0,0,0,0,0.030479
2020/07/11 03:02:00.000,n,133,2.16,1.8,2.52,14.7,83.3,1022.42,0,0,0,0,0.031395
2020/07/11 03:03:00.002,n,113,2.52,2.16,2.88,14.7,83.4,1022.42,0,0,0,0,0.030479
2020/07/11 03:04:00.000,n,111,2.52,2.16,2.52,14.7,83.4,1022.42,0,0,0,0,0.028763
2020/07/11 03:05:00.000,n,165,2.16,1.8,2.88,14.7,83.4,1022.42,0,0,0,0,0.033989
2020/07/11 03:06:00.000,n,170,2.16,1.8,2.88,14.7,83.4,1022.42,0,0,0,0,0.030479
2020/07/11 03:07:00.008,n,160,3.96,3.24,4.32,14.7,83.5,1022.32,0,0,0,0,0.032272
2020/07/11 03:08:00.005,n,145,2.52,2.52,2.88,14.7,83.5,1022.32,0,0,0,0,0.031395
2020/07/11 03:09:00.002,n,142,3.24,2.88,4.32,14.7,83.5,1022.32,0,0,0,0,0.02964
2020/07/11 03:10:00.000,n,172,4.68,4.32,5.04,14.7,83.5,1022.32,0,0,0,0,0.026131
2020/07/11 03:11:00.000,n,147,4.68,4.68,5.4,14.6,83.5,1022.32,0,0,0,0,0.023537
2020/07/11 03:12:00.000,n,130,3.96,3.24,4.32,14.6,83.6,1022.32,0,0,0,0,0.026131
2020/07/11 03:13:00.000,n,134,2.88,2.16,3.24,14.6,83.6,1022.32,0,0,0,0,0.030479
2020/07/11 03:14:00.004,n,358,0.72,0.36,1.8,14.6,83.6,1022.32,0,0,0,0,0.026131
2020/07/11 03:15:00.001,n,163,3.24,2.88,3.24,14.6,83.6,1022.32,0,0,0,0,0.027924
2020/07/11 03:16:00.000,n,147,1.44,1.08,1.8,14.6,83.6,1022.32,0,0,0,0,0.027924
2020/07/11 03:17:00.011,n,230,0.72,0.36,1.08,14.6,83.7,1022.22,0,0,0,0,0.028763
2020/07/11 03:18:00.009,n,144,3.24,2.52,3.6,14.6,83.7,1022.22,0,0,0,0,0.027046
2020/07/11 03:19:00.000,n,141,3.6,3.24,3.6,14.6,83.7,1022.22,0,0,0,0,0.028763
2020/07/11 03:20:00.002,n,151,2.88,2.52,3.24,14.6,83.7,1022.22,0,0,0,0,0.031395
2020/07/11 03:21:00.000,n,142,2.52,2.16,2.88,14.6,83.8,1022.22,0,0,0,0,0.025291
2020/07/11 03:22:00.000,n,147,1.8,1.44,2.16,14.6,83.9,1022.22,0,0,0,0,0.027924
2020/07/11 03:23:00.000,n,133,2.16,2.16,2.52,14.6,83.9,1022.22,0,0,0,0,0.030479
2020/07/11 03:24:00.008,n,118,1.08,1.08,1.44,14.6,83.9,1022.22,0,0,0,0,0.026131
2020/07/11 03:25:00.005,n,132,1.44,1.44,1.8,14.6,83.9,1022.22,0,0,0,0,0.028763
2020/07/11 03:26:00.003,n,108,1.8,0.36,2.88,14.7,84,1022.22,0,0,0,0,0.028763
2020/07/11 03:27:00.001,n,166,2.52,2.16,2.52,14.7,84,1022.12,0,0,0,0,0.030479
2020/07/11 03:28:00.000,n,146,2.88,2.52,3.24,14.7,83.9,1022.12,0,0,0,0,0.02964
2020/07/11 03:29:00.000,n,176,2.16,1.8,2.88,14.7,84,1022.02,0,0,0,0,0.027924
2020/07/11 03:30:00.000,n,175,5.4,4.68,5.76,14.7,84,1022.02,0,0,0,0,0.027924
2020/07/11 03:31:00.005,n,164,3.96,3.6,4.32,14.7,83.9,1021.92,0,0,0,0,0.026131
2020/07/11 03:32:00.003,n,182,3.96,3.6,4.32,14.8,84,1021.92,0,0,0,0,0.027046
2020/07/11 03:33:00.000,n,162,1.44,1.44,1.8,14.8,84,1021.92,0,0,0,0,0.027046
2020/07/11 03:34:00.012,n,146,2.16,1.44,2.88,14.8,84,1021.92,0,0,0,0,0.026131
2020/07/11 03:35:00.008,n,140,2.52,2.16,2.88,14.8,83.9,1021.92,0,0,0,0,0.028763
2020/07/11 03:36:00.005,n,120,2.52,2.16,2.52,14.8,84,1021.92,0,0,0,0,0.027924
2020/07/11 03:37:00.000,n,188,1.44,1.44,1.8,14.8,84,1021.92,0,0,0,0,0.027046
2020/07/11 03:38:00.000,n,149,4.32,3.24,4.68,14.7,83.9,1021.92,0,0,0,0,0.032272
2020/07/11 03:39:00.000,n,148,3.96,2.52,4.32,14.7,83.8,1021.92,0,0,0,0,0.02964
2020/07/11 03:40:00.000,n,155,4.68,4.32,5.76,14.7,83.8,1021.92,0,0,0,0,0.027924
2020/07/11 03:41:00.008,n,134,4.68,2.16,6.12,14.6,83.9,1021.92,0,0,0,0,0.027924
2020/07/11 03:42:00.005,n,146,4.68,4.68,5.4,14.6,84,1021.92,0,0,0,0,0.02964
2020/07/11 03:43:00.001,n,154,5.4,5.4,5.76,14.6,84.1,1021.92,0,0,0,0,0.026131
2020/07/11 03:44:00.000,n,147,3.24,3.24,3.6,14.6,84.2,1021.82,0,0,0,0,0.027924
2020/07/11 03:45:00.011,n,146,2.88,2.52,2.88,14.6,84.3,1021.82,0,0,0,0,0.027046
2020/07/11 03:46:00.000,n,150,3.24,3.24,3.6,14.6,84.3,1021.82,0,0,0,0,0.027924
2020/07/11 03:47:00.000,n,172,1.8,1.44,1.8,14.6,84.3,1021.82,0,0,0,0,0.02964
2020/07/11 03:48:00.002,n,152,3.24,3.24,3.6,14.5,84.3,1021.82,0,0,0,0,0.026131
2020/07/11 03:49:00.000,n,200,1.8,1.08,2.16,14.5,84.4,1021.82,0,0,0,0,0.030479
2020/07/11 03:50:00.000,n,150,2.16,1.44,2.52,14.5,84.4,1021.82,0,0,0,0,0.036583
2020/07/11 03:51:00.009,n,175,2.16,1.44,2.52,14.5,84.6,1021.82,0,0,0,0,0.03746
2020/07/11 03:52:00.005,n,163,5.04,4.68,5.4,14.5,84.6,1021.82,0,0,0,0,0.032234
2020/07/11 03:53:00.003,n,136,3.96,3.96,4.32,14.5,84.7,1021.82,0,0,0,0,0.033112
2020/07/11 03:54:00.000,n,176,3.24,2.88,3.96,14.5,84.6,1021.82,0,0,0,0,0.028725
2020/07/11 03:55:00.000,n,167,4.68,3.6,5.4,14.4,84.6,1021.72,0,0,0,0,0.029602
2020/07/11 03:56:00.000,n,197,3.24,2.88,3.24,14.4,84.6,1021.72,0,0,0,0,0.032234
2020/07/11 03:57:00.000,n,255,0.72,0.36,0.72,14.4,84.7,1021.72,0,0,0,0,0.029602
2020/07/11 03:58:00.004,n,240,2.52,2.16,3.24,14.4,84.8,1021.72,0,0,0,0,0.029602
2020/07/11 03:59:00.002,n,257,2.16,1.8,2.52,14.4,84.8,1021.72,0,0,0,0,0.027885
2020/07/11 04:00:00.000,n,201,0.72,0.36,0.72,14.4,84.9,1021.72,0,0,0,0,0.027885
2020/07/11 04:01:00.000,n,96,1.8,1.8,2.16,14.4,84.9,1021.72,0,0,0,0,0.031357
2020/07/11 04:02:00.009,n,162,1.44,1.08,1.44,14.5,84.9,1021.72,0,0,0,0,0.030479
2020/07/11 04:03:00.008,n,146,2.52,2.16,3.24,14.5,84.7,1021.72,0,0,0,0,0.029602
2020/07/11 04:04:00.000,n,147,1.44,0.72,2.16,14.4,84.7,1021.72,0,0,0,0,0.027885
2020/07/11 04:05:00.001,n,100,0.36,0.36,0.72,14.4,84.7,1021.72,0,0,0,0,0.031357
2020/07/11 04:06:00.000,n,149,1.08,0.72,1.08,14.4,84.7,1021.72,0,0,0,0,0.026131
2020/07/11 04:07:00.000,n,211,0.72,0.36,0.72,14.4,84.8,1021.72,0,0,0,0,0.028725
2020/07/11 04:08:00.000,n,236,1.08,1.08,1.44,14.4,84.8,1021.72,0,0,0,0,0.027885
2020/07/11 04:09:00.008,n,218,2.52,2.16,2.88,14.4,84.9,1021.72,0,0,0,0,0.025253
2020/07/11 04:10:00.005,n,218,1.44,1.08,1.44,14.4,85,1021.72,0,0,0,0,0.026131
2020/07/11 04:11:00.002,n,231,1.44,1.44,1.8,14.5,85.1,1021.62,0,0,0,0,0.027885
2020/07/11 04:12:00.015,n,191,0.72,0.36,0.72,14.5,85.1,1021.72,0,0,0,0,0.027885
2020/07/11 04:13:00.000,n,262,0.72,0.36,0.72,14.5,85.1,1021.72,0,0,0,0,0.026131
2020/07/11 04:14:00.000,n,321,0.36,0,0.72,14.5,85.1,1021.72,0,0,0,0,0.027008
2020/07/11 04:15:00.000,n,216,1.08,1.08,1.08,14.5,85.1,1021.72,0,0,0,0,0.024376
2020/07/11 04:16:00.005,n,255,1.08,1.08,1.08,14.5,85,1021.72,0,0,0,0,0.033989
2020/07/11 04:17:00.000,n,291,0.72,0.36,0.72,14.5,85.1,1021.72,0,0,0,0,0.038338
2020/07/11 04:18:00.000,n,68,0.72,0.36,1.44,14.5,85.3,1021.72,0,0,0,0,0.038338
2020/07/11 04:19:00.007,n,283,0.72,0.72,1.08,14.6,85.4,1021.72,0,0,0,0,0.03746
2020/07/11 04:20:00.005,n,270,0.36,0,0.36,14.6,85.3,1021.72,0,0,0,0,0.040092
2020/07/11 04:21:00.002,n,184,0.72,0.36,0.72,14.6,85.4,1021.72,0,0,0,0,0.040092
2020/07/11 04:22:00.000,n,49,1.8,1.44,2.16,14.7,85.2,1021.72,0,0,0,0,0.041809
2020/07/11 04:23:00.000,n,111,1.8,1.08,2.16,14.7,85,1021.72,0,0,0,0,0.043564
2020/07/11 04:24:00.000,n,85,2.16,2.16,2.52,14.6,84.9,1021.72,0,0,0,0,0.045319
2020/07/11 04:25:00.000,n,115,1.44,1.08,1.8,14.6,84.8,1021.72,0,0,0,0,0.039177
2020/07/11 04:26:00.006,n,138,0.72,0.72,1.08,14.6,84.8,1021.72,0,0,0,0,0.045319
2020/07/11 04:27:00.005,n,152,1.8,1.08,2.52,14.6,84.8,1021.72,0,0,0,0,0.04097
2020/07/11 04:28:00.000,n,87,2.16,1.8,2.52,14.6,84.7,1021.72,0,0,0,0,0.038338
2020/07/11 04:29:00.000,n,180,1.44,1.08,1.8,14.6,84.7,1021.72,0,0,0,0,0.044441
2020/07/11 04:30:00.012,n,115,0.72,0.72,0.72,14.5,84.7,1021.62,0,0,0,0,0.039177
2020/07/11 04:31:00.000,n,140,2.88,2.52,3.24,14.5,84.7,1021.62,0,0,0,0,0.043564
2020/07/11 04:32:00.000,n,146,1.08,1.08,1.08,14.5,84.8,1021.62,0,0,0,0,0.03746
2020/07/11 04:33:00.004,n,190,2.52,2.16,2.52,14.5,84.8,1021.62,0,0,0,0,0.042686
2020/07/11 04:34:00.002,n,199,2.52,2.52,2.88,14.5,84.8,1021.62,0,0,0,0,0.038338
2020/07/11 04:35:00.000,n,183,2.52,2.52,2.88,14.5,84.7,1021.62,0,0,0,0,0.034828
2020/07/11 04:36:00.000,n,178,2.52,2.16,2.52,14.5,84.8,1021.62,0,0,0,0,0.047913
2020/07/11 04:37:00.010,n,164,2.52,2.52,2.88,14.5,85,1021.62,0,0,0,0,0.039177
2020/07/11 04:38:00.007,n,151,1.8,0.72,2.52,14.5,85,1021.62,0,0,0,0,0.043564
2020/07/11 04:39:00.004,n,167,1.8,1.8,2.16,14.5,85,1021.52,0,0,0,0,0.042686
2020/07/11 04:40:00.002,n,156,2.52,1.8,3.24,14.5,85,1021.62,0,0,0,0,0.038338
2020/07/11 04:41:00.000,n,165,2.88,2.16,3.24,14.5,85,1021.62,0,0,0,0,0.043564
2020/07/11 04:42:00.000,n,180,2.52,2.52,2.88,14.5,85,1021.62,0,0,0,0,0.043564
2020/07/11 04:43:00.000,n,190,1.08,1.08,1.44,14.5,85,1021.62,0,0,0,0,0.039177
2020/07/11 04:44:00.006,n,250,0.36,0,0.36,14.5,85,1021.62,0,0,0,0,0.043564
2020/07/11 04:45:00.005,n,250,0.36,0,0.72,14.5,85.1,1021.62,0,0,0,0,0.040092
2020/07/11 04:46:00.001,n,250,0.72,0.36,0.72,14.5,85,1021.62,0,0,0,0,0.03746
2020/07/11 04:47:00.015,n,271,0.72,0.36,0.72,14.5,85,1021.62,0,0,0,0,0.04097
2020/07/11 04:48:00.011,n,237,1.08,1.08,1.08,14.5,84.9,1021.62,0,0,0,0,0.04097
2020/07/11 04:49:00.000,n,130,0.72,0.36,0.72,14.5,84.9,1021.62,0,0,0,0,0.03746
2020/07/11 04:50:00.000,n,301,0.72,0.72,0.72,14.5,85,1021.52,0,0,0,0,0.04097
2020/07/11 04:51:00.003,n,61,1.44,0.72,2.16,14.5,85,1021.52,0,0,0,0,0.038338
2020/07/11 04:52:00.000,n,76,1.8,1.8,2.52,14.5,85.1,1021.52,0,0,0,0,0.038338
2020/07/11 04:53:00.000,n,84,1.08,1.08,1.8,14.5,85.2,1021.52,0,0,0,0,0.039177
2020/07/11 04:54:00.010,n,107,0.72,0.36,1.08,14.5,85.1,1021.52,0,0,0,0,0.041809
2020/07/11 04:55:00.006,n,150,1.44,1.44,1.44,14.5,85.1,1021.42,0,0,0,0,0.041809
2020/07/11 04:56:00.004,n,128,1.8,1.8,1.8,14.5,85.1,1021.42,0,0,0,0,0.042686